Location: ????????
(54.9045°N, 39.1041°E)
Time: 15:10:15
(UTC+00:00)

H-2A R/B - Visible Passes

Search period start: 13 July 2025 00:00
Search period end: 23 July 2025 00:00
Orbit: 729 x 831 km, 98.3° (Epoch: 12 July)

Date Brightness Start Highest point End Pass type
(mag) Time Alt. Az. Time Alt. Az. Time Alt. Az.
15 Jul 3.9 00:04:13 10° NE 00:08:19 25° E 00:12:22 10° SSE visible
15 Jul 4.5 23:32:41 10° NE 23:35:23 15° E 23:38:04 10° ESE visible
18 Jul 3.9 00:06:04 10° NE 00:10:12 26° E 00:14:18 10° SSE visible
18 Jul 4.4 23:34:28 10° NE 23:37:18 15° E 23:40:06 10° ESE visible
21 Jul 3.8 00:07:54 10° NE 00:12:05 27° E 00:16:14 10° SSE visible
21 Jul 4.4 23:36:15 10° NE 23:39:11 16° E 23:42:07 10° ESE visible
